[TLELIST] Archives

 

[TLELIST] Current TLEs

July 10th 2025 PDT

HST 1 20580U 90037B 25190.87874761 .00003534 00000-0 12732-3 0 9992 2 20580 28.4678 251.0835 0001924 356.0816 3.9763 15.25523964736412 ISS (ZARYA) 1 25544U 98067A 25191.22743991 .00007981 00000-0 14530-3 0 9996 2 25544 51.6351 192.8633 0002509 1.3942 87.9726 15.50465878518732 CXO 1 25867U 99040B 25193.23688302 .00000730 00000-0 00000+0 0 9991 2 25867 49.9889 128.6492 8381586 309.7673 0.3172 0.37796383 27191 ...Continue Reading

[TLELIST] Current TLEs

July 10th 2025 PDT

HST 1 20580U 90037B 25190.87874761 .00003534 00000-0 12732-3 0 9992 2 20580 28.4678 251.0835 0001924 356.0816 3.9763 15.25523964736412 ISS (ZARYA) 1 25544U 98067A 25191.22743991 .00007981 00000-0 14530-3 0 9996 2 25544 51.6351 192.8633 0002509 1.3942 87.9726 15.50465878518732 CXO 1 25867U 99040B 25193.23688302 .00000730 00000-0 00000+0 0 9991 2 25867 49.9889 128.6492 8381586 309.7673 0.3172 0.37796383 27191 ...Continue Reading

[TLELIST] Current TLEs

July 9th 2025 PDT

HST 1 20580U 90037B 25189.50492878 .00004213 00000-0 15337-3 0 9994 2 20580 28.4682 260.3985 0001848 339.8718 20.1803 15.25514129735947 ISS (ZARYA) 1 25544U 98067A 25190.02470325 .00008280 00000-0 15053-3 0 9995 2 25544 51.6358 198.8275 0002118 354.0350 217.6565 15.50447055518543 CXO 1 25867U 99040B 25190.59594014 .00000634 00000-0 00000-0 0 9997 2 25867 49.9420 128.7398 8385670 309.7762 0.7190 0.37799042 16035 ...Continue Reading

[TLELIST] Current TLEs

July 8th 2025 PDT

HST 1 20580U 90037B 25189.24324790 .00004553 00000-0 16644-3 0 9991 2 20580 28.4683 262.1729 0001845 337.0207 23.0305 15.25512511736161 ISS (ZARYA) 1 25544U 98067A 25189.21335687 .00007259 00000-0 13303-3 0 9996 2 25544 51.6336 202.8559 0002499 346.6817 13.4106 15.50431524518421 CXO 1 25867U 99040B 25190.59594014 .00000634 00000-0 00000-0 0 9997 2 25867 49.9420 128.7398 8385670 309.7762 0.7190 0.37799042 16035 ...Continue Reading

[TLELIST] Current TLEs

July 7th 2025 PDT

HST 1 20580U 90037B 25187.60773434 .00004724 00000-0 17307-3 0 9999 2 20580 28.4685 273.2622 0001788 318.0974 41.9484 15.25496816735653 ISS (ZARYA) 1 25544U 98067A 25188.39183326 .00007084 00000-0 13010-3 0 9996 2 25544 51.6363 206.9237 0002192 345.2586 106.4404 15.50414693518294 CXO 1 25867U 99040B 25190.59594014 .00000634 00000-0 00000-0 0 9997 2 25867 49.9420 128.7398 8385670 309.7762 0.7190 0.37799042 16035 ...Continue Reading

[TLELIST] Current TLEs

July 6th 2025 PDT

HST 1 20580U 90037B 25186.62641787 .00005110 00000-0 18791-3 0 9993 2 20580 28.4686 279.9154 0001721 304.5187 55.5245 15.25487684735503 ISS (ZARYA) 1 25544U 98067A 25187.21521352 .00007482 00000-0 13705-3 0 9994 2 25544 51.6341 212.7627 0002517 339.7243 20.3646 15.50395869518113 CXO 1 25867U 99040B 25187.94942826 .00000511 00000-0 00000-0 0 9994 2 25867 49.8968 128.8299 8389429 309.7726 0.3708 0.37803286 16013 ...Continue Reading

[TLELIST] Current TLEs

July 5th 2025 PDT

HST 1 20580U 90037B 25185.51425175 .00005005 00000-0 18394-3 0 9993 2 20580 28.4685 287.4552 0001700 289.3861 70.6550 15.25476147735334 ISS (ZARYA) 1 25544U 98067A 25186.18389497 .00006732 00000-0 12417-3 0 9997 2 25544 51.6345 217.8755 0002490 335.5645 24.5226 15.50380546517952 CXO 1 25867U 99040B 25187.94942826 .00000511 00000-0 00000-0 0 9994 2 25867 49.8968 128.8299 8389429 309.7726 0.3708 0.37803286 16013 ...Continue Reading

[TLELIST] Current TLEs

July 5th 2025 PDT

HST 1 20580U 90037B 25185.51425175 .00005005 00000-0 18394-3 0 9993 2 20580 28.4685 287.4552 0001700 289.3861 70.6550 15.25476147735334 ISS (ZARYA) 1 25544U 98067A 25186.18389497 .00006732 00000-0 12417-3 0 9997 2 25544 51.6345 217.8755 0002490 335.5645 24.5226 15.50380546517952 CXO 1 25867U 99040B 25187.94942826 .00000511 00000-0 00000-0 0 9994 2 25867 49.8968 128.8299 8389429 309.7726 0.3708 0.37803286 16013 ...Continue Reading

[TLELIST] Current TLEs

July 4th 2025 PDT

HST 1 20580U 90037B 25184.66376620 .00004961 00000-0 18230-3 0 9997 2 20580 28.4685 293.2213 0001704 277.9163 82.1238 15.25467891735208 ISS (ZARYA) 1 25544U 98067A 25185.15256655 .00005556 00000-0 10394-3 0 9997 2 25544 51.6344 222.9877 0002427 330.6237 29.4615 15.50365120517795 CXO 1 25867U 99040B 25187.94879861 .00000511 00000-0 00000-0 0 9992 2 25867 49.8968 128.8299 8389427 309.7726 0.2851 0.37803341 16011 ...Continue Reading

[TLELIST] Current TLEs

July 3rd 2025 PDT

HST 1 20580U 90037B 25183.55158605 .00005037 00000-0 18527-3 0 9999 2 20580 28.4686 300.7623 0001721 262.8803 97.1596 15.25457604735036 ISS (ZARYA) 1 25544U 98067A 25184.44352307 .00005261 00000-0 98866-4 0 9993 2 25544 51.6345 226.5029 0002404 327.7147 32.3695 15.50355829517681 CXO 1 25867U 99040B 25185.30516719 .00000413 00000-0 00000+0 0 9990 2 25867 49.8723 128.9033 8393697 309.7755 0.3417 0.37806887 27168 ...Continue Reading
  • This mailing list is a public mailing list - anyone may join or leave, at any time.
  • This mailing list is announce-only.

International Space Station (ISS) / Hubble Space Telescope (HST) / Chandra X-Ray Observatory Orbital Data via EMAIL

Privacy Policy:

Private list